Retour au catalogue

ONEWEB-0379

ActifCommunicationsPO
NORAD 49305·PAYLOAD·🇬🇧 United Kingdom

Lancé Oct 14, 2021 depuis Vostochny Cosmodrome

Loading…

Prochains Passages (prochaines 24 heures)

TLE

FraisSource: CelesTrak SupGP

Époque: Sep 14, 2026, 17:05 UTC

1 49305C 21090AC  26257.71199492 -.00002203  00000+0 -59487-2 0  2577
2 49305  87.8902 271.8551 0002101  92.3123 304.5150 13.14504867    18

Suivez ONEWEB-0379 en temps réel avec AllMySat

Download on the App Store